Zurück zum Katalog

KAGAYAKI

AktivWissenschaftSSO
NORAD 33495·PAYLOAD·🇯🇵 Japan

Gestartet Jan 23, 2009 von Tanegashima Space Center

Loading…

Nächste Überflüge (nächste 24 Stunden)

TLE

AktuellSource: Space-Track

Epoche: Sep 14, 2026, 10:58 UTC

1 33495U 09002D   26257.45742517  .00000258  00000-0  46161-4 0  9999
2 33495  98.1123 163.3115 0008978 102.0190 258.2025 14.74851154947379

Verfolge KAGAYAKI in Echtzeit mit AllMySat

Download on the App Store